MST,Max TemperatureF,Mean TemperatureF,Min TemperatureF,Max Dew PointF,MeanDew PointF,Min DewpointF,Max Humidity, Mean Humidity, Min Humidity, Max Sea Level PressureIn, Mean Sea Level PressureIn, Min Sea Level PressureIn, Max VisibilityMiles, Mean VisibilityMiles, Min VisibilityMiles, Max Wind SpeedMPH, Mean Wind SpeedMPH, Max Gust SpeedMPH,PrecipitationIn, CloudCover, Events, WindDirDegrees
2012-11-1,88,73,58,54,37,29,53,33,13,29.93,29.87,29.82,10,10,9,8,2,10,0.00,3,,120
2012-11-2,85,72,58,56,50,45,80,55,29,29.92,29.86,29.82,10,10,10,8,2,10,0.00,1,,165
2012-11-3,89,74,59,51,40,30,69,41,12,29.99,29.95,29.90,10,10,10,8,3,12,0.00,1,,36
2012-11-4,92,78,63,35,29,24,31,20,9,30.06,30.00,29.97,10,10,10,14,6,18,0.00,0,,20
2012-11-5,93,79,64,37,28,23,32,20,8,30.06,30.00,29.96,10,8,7,14,6,17,0.00,0,,16
2012-11-6,93,77,60,43,34,27,39,24,9,30.04,29.97,29.92,10,9,7,15,4,17,0.00,0,,33
2012-11-7,91,75,58,42,36,30,44,28,12,29.97,29.90,29.83,10,10,10,12,2,13,0.00,1,,117
2012-11-8,82,71,59,50,41,34,47,34,20,29.90,29.82,29.76,10,9,7,17,4,23,0.00,3,,224
2012-11-9,75,66,56,48,42,33,60,45,29,29.87,29.81,29.76,10,8,4,23,12,30,0.00,4,,300
2012-11-10,69,60,51,38,31,21,59,39,19,30.11,29.98,29.88,10,9,6,23,12,29,0.00,1,,288
2012-11-11,69,57,45,31,20,12,50,32,13,30.33,30.25,30.12,10,10,10,18,7,25,0.00,0,,358
2012-11-12,70,60,50,15,11,9,22,16,9,30.30,30.22,30.13,10,10,10,20,11,26,0.00,2,,357
2012-11-13,76,62,48,23,10,6,28,18,7,30.18,30.11,30.04,10,10,10,15,7,17,0.00,0,,356
2012-11-14,81,65,49,25,18,12,33,21,8,30.09,30.03,29.98,10,10,10,10,5,15,0.00,3,,15
2012-11-15,69,64,58,34,23,17,26,21,15,30.09,30.04,30.00,10,10,9,14,4,17,T,7,,35
2012-11-16,82,68,53,37,28,18,38,24,10,30.09,30.03,29.98,10,10,10,9,3,12,0.00,3,,41
2012-11-17,82,71,59,48,42,33,48,37,26,30.06,30.01,29.97,10,10,10,13,3,16,0.00,4,,325
2012-11-18,78,67,56,47,45,43,67,48,29,30.09,30.04,30.01,10,10,10,9,2,13,0.00,2,,315
2012-11-19,79,66,53,45,43,40,66,46,26,30.19,30.13,30.09,10,10,10,8,2,10,0.00,1,,314
2012-11-20,82,67,51,41,39,34,68,43,18,30.12,30.05,29.97,10,10,7,9,2,14,0.00,0,,7
2012-11-21,81,66,50,42,39,33,63,41,19,30.05,29.98,29.94,10,10,10,7,1,9,0.00,1,,278
2012-11-22,82,67,51,39,35,32,54,36,18,30.09,30.04,29.97,10,10,10,12,4,15,0.00,1,,14
2012-11-23,83,68,53,37,32,29,47,31,14,30.17,30.09,30.05,10,10,10,17,6,21,0.00,0,,5
2012-11-24,86,73,60,33,29,27,32,22,12,30.07,29.99,29.91,10,10,10,14,7,18,0.00,0,,10
2012-11-25,81,69,57,54,37,28,60,40,20,29.92,29.87,29.80,10,10,10,10,4,14,0.00,0,,95
2012-11-26,81,68,54,54,49,40,78,51,23,30.05,29.97,29.89,10,10,10,6,1,8,0.00,1,,44
2012-11-27,82,69,56,44,33,28,64,40,15,30.12,30.05,29.99,10,10,10,15,5,17,0.00,4,,20
2012-11-28,78,65,51,47,40,34,56,42,27,30.14,30.07,30.03,10,10,10,7,3,12,0.00,3,,125
2012-11-29,79,67,54,55,50,47,77,56,35,30.17,30.10,30.05,10,9,1,7,2,9,0.00,2,,194
2012-11-30,79,68,57,52,49,47,72,54,35,30.11,30.06,30.01,10,10,10,13,3,15,0.00,4,,308